Vorticity
7 28 28 2 7 5 -3 5 6 6 8 7 4 6 15 9 9 8 6 7 7 5 6 5 8 8 9 6 4 5 6 5 7 -1 3 4 4 4 5 8 9 0 13
7 8 24 14 22 8 14 -4 6 7 9 10 6 5 30 13 9 12 6 10 8 5 3 5 8 7 4 5 9 0 7 5 7 7 8 7 7 7 9 8 9 9 9
6 10 5 11 10 15 20 3 4 5 6 8 10 7 18 6 10 15 7 9 8 10 2 -2 3 5 12 5 8 10 5 7 7 7 8 9 7 8 7 6 8 10 9
7 3 7 9 13 6 5 28 20 8 4 7 11 7 9 8 8 7 9 9 8 9 14 14 6 -1 5 6 9 18 7 15 3 7 9 6 5 5 6 8 6 6 12
9 7 5 4 7 7 9 -2 30 18 15 11 16 4 8 6 5 6 10 10 6 4 8 2 16 6 11 7 10 8 7 2 6 7 7 5 5 7 8 5 5 14 3
6 6 9 9 5 4 5 11 37 4 8 6 10 9 6 5 9 6 7 7 12 1 3 9 7 9 12 13 20 6 4 5 8 8 7 7 6 8 8 9 6 10 3
7 7 6 6 7 8 7 3 4 -0 5 30 2 14 6 7 3 7 7 8 7 6 -0 17 4 3 7 5 11 7 7 7 8 8 7 5 6 7 10 13 5 13 7
9 8 8 7 7 6 9 11 11 11 1 20 8 36 34 7 19 23 10 0 9 -4 -1 2 13 6 9 8 11 6 6 6 9 9 8 9 7 7 8 8 12 5 10
8 9 7 8 8 8 8 6 2 1 3 14 20 2 10 20 24 22 21 1 25 -3 9 22 3 11 7 6 8 8 5 8 11 11 7 7 6 3 5 8 7 7 5
8 6 6 6 6 6 6 7 7 11 7 6 6 13 4 13 13 7 9 16 31 15 13 -10 6 9 4 8 9 8 5 8 10 7 6 6 4 4 6 7 8 8 10
8 8 8 8 6 4 4 4 5 7 7 8 9 6 8 18 10 33 -8 -9 10 32 11 5 12 4 9 3 10 7 6 11 9 6 6 5 5 5 7 8 8 14 11
12 13 14 13 11 10 9 8 9 5 5 10 9 10 10 7 15 15 22 20 17 38 9 16 13 -0 12 9 0 9 6 7 6 5 5 5 7 7 7 15 16 26 19
12 12 12 11 12 16 14 13 8 17 21 10 10 9 10 14 14 6 15 7 30 44 32 7 21 20 10 7 20 6 6 8 6 5 4 6 3 8 -4 17 10 19 11
8 10 12 13 12 13 14 15 15 16 15 27 20 10 8 13 15 10 13 6 15 -1 41 31 8 -11 51 28 20 14 8 5 5 4 4 4 4 8 6 13 6 18 17
11 12 11 10 14 16 9 5 14 15 15 21 25 22 12 10 15 9 9 12 8 -6 17 8 10 17 16 31 18 9 6 6 4 4 3 4 6 3 6 9 5 6 15
14 14 13 16 14 10 12 15 12 4 9 11 20 26 21 9 12 15 6 11 12 4 2 14 9 27 13 11 5 5 5 2 4 2 3 4 4 3 5 8 5 8 8
12 13 14 12 11 11 12 10 9 4 10 12 13 20 30 11 13 16 8 10 10 8 2 17 5 11 9 11 6 4 3 4 2 3 1 6 2 5 7 1 5 7 16
13 12 12 13 14 14 12 6 12 11 11 10 17 17 36 14 11 11 12 6 11 12 6 -1 23 7 13 8 7 4 3 5 3 1 11 2 -9 5 2 6 3 11 9
11 15 17 17 16 10 11 9 6 7 11 10 14 14 35 17 10 9 9 9 8 10 12 12 12 11 3 12 14 5 10 8 3 8 5 14 24 23 11 3 10 5 15
17 6 5 17 21 15 23 22 20 16 14 11 14 16 23 28 10 9 8 9 7 8 12 15 12 10 5 2 15 16 5 14 6 6 14 29 24 22 12 6 9 7 9
8 18 2 9 23 17 12 11 13 12 18 9 21 20 14 34 16 9 7 7 6 9 8 10 11 9 13 18 11 1 5 7 30 36 17 1 16 30 22 10 6 11 3
7 17 10 18 20 25 24 21 16 14 18 10 20 19 9 31 20 10 9 6 7 8 9 9 8 9 13 15 22 21 8 8 8 -5 4 9 10 6 6 10 7 4 10
19 12 21 20 19 16 17 18 19 20 17 12 25 18 10 26 24 11 9 8 6 7 9 10 12 7 8 11 11 8 7 9 2 1 17 22 9 15 4 1 6 10 8
17 19 14 15 16 13 16 12 15 19 17 16 26 14 10 20 25 12 14 9 5 6 8 12 13 10 11 10 8 10 6 7 4 11 1 5 12 15 14 16 15 15 15
14 16 19 13 9 21 24 19 18 17 16 17 22 12 12 19 22 15 15 12 12 5 8 11 15 15 10 11 9 13 12 11 8 6 8 10 7 5 5 5 12 22 16
14 17 13 14 12 23 24 17 24 19 16 13 22 14 13 17 20 14 14 10 12 11 24 15 14 13 11 10 10 9 13 9 11 12 9 4 3 6 5 12 26 15 10
Height
5853 5852 5854 5857 5862 5867 5869 5871 5873 5876 5877 5878 5879 5880 5881 5884 5885 5887 5889 5891 5893 5894 5895 5898 5899 5900 5899 5900 5899 5899 5899 5899 5899 5899 5897 5896 5897 5896 5894 5893 5893 5893 5893
5859 5857 5857 5859 5861 5864 5865 5867 5870 5871 5872 5873 5875 5875 5874 5877 5880 5883 5885 5887 5888 5889 5890 5893 5895 5896 5896 5896 5897 5897 5897 5898 5897 5896 5896 5895 5895 5894 5893 5893 5892 5892 5892
5862 5861 5860 5859 5860 5862 5864 5866 5867 5866 5866 5868 5868 5870 5871 5872 5875 5878 5880 5882 5883 5884 5886 5888 5890 5891 5893 5892 5892 5893 5893 5894 5894 5893 5893 5893 5892 5892 5891 5891 5890 5890 5890
5862 5862 5861 5859 5860 5861 5860 5857 5859 5860 5860 5862 5863 5864 5865 5866 5869 5870 5873 5876 5877 5879 5880 5882 5884 5885 5887 5888 5888 5888 5889 5890 5890 5890 5890 5889 5888 5888 5887 5886 5886 5886 5885
5860 5860 5859 5857 5857 5856 5856 5855 5854 5856 5856 5856 5855 5858 5860 5861 5862 5863 5865 5866 5870 5872 5874 5875 5877 5878 5882 5883 5883 5884 5885 5885 5885 5886 5886 5886 5886 5884 5883 5882 5881 5881 5880
5856 5855 5854 5854 5855 5854 5854 5852 5852 5852 5851 5851 5849 5851 5852 5855 5858 5857 5858 5859 5862 5864 5866 5867 5869 5871 5874 5876 5877 5879 5880 5881 5881 5882 5882 5882 5882 5882 5881 5880 5878 5876 5875
5851 5850 5850 5849 5848 5848 5848 5847 5847 5848 5847 5845 5843 5843 5844 5845 5847 5848 5850 5853 5856 5858 5859 5860 5862 5865 5867 5869 5872 5873 5875 5876 5876 5877 5877 5877 5877 5877 5876 5875 5874 5872 5870
5845 5844 5844 5843 5843 5842 5841 5840 5839 5838 5839 5839 5837 5837 5838 5836 5838 5835 5840 5842 5844 5846 5849 5851 5854 5857 5860 5862 5865 5866 5867 5868 5870 5871 5872 5872 5872 5871 5870 5869 5868 5867 5864
5837 5837 5837 5836 5835 5834 5833 5834 5833 5832 5830 5830 5830 5829 5830 5829 5829 5832 5833 5836 5835 5835 5839 5842 5845 5850 5853 5855 5857 5859 5860 5862 5863 5865 5866 5866 5866 5865 5864 5863 5861 5860 5858
5830 5829 5827 5827 5828 5828 5826 5824 5824 5824 5824 5824 5823 5822 5821 5821 5821 5823 5825 5825 5826 5830 5832 5834 5837 5841 5843 5843 5848 5850 5852 5854 5855 5857 5859 5859 5858 5857 5856 5855 5853 5851 5851
5820 5818 5817 5816 5815 5815 5816 5815 5814 5814 5814 5814 5815 5815 5815 5813 5812 5812 5815 5816 5818 5821 5823 5825 5827 5828 5831 5834 5836 5839 5843 5846 5848 5850 5851 5852 5851 5851 5850 5849 5846 5843 5842
5811 5810 5808 5807 5805 5804 5802 5801 5801 5800 5802 5803 5805 5807 5805 5805 5802 5801 5803 5803 5805 5806 5811 5812 5815 5818 5820 5823 5826 5830 5833 5837 5840 5842 5844 5844 5845 5845 5843 5840 5838 5835 5833
5801 5799 5797 5796 5796 5795 5793 5791 5789 5788 5789 5790 5795 5797 5795 5796 5795 5790 5793 5792 5794 5795 5797 5800 5804 5806 5810 5814 5819 5820 5824 5828 5831 5833 5835 5837 5837 5836 5835 5833 5830 5828 5826
5789 5786 5785 5784 5783 5781 5780 5778 5777 5776 5775 5776 5778 5784 5785 5786 5786 5784 5786 5785 5785 5786 5787 5788 5794 5796 5799 5804 5809 5812 5816 5819 5822 5824 5826 5827 5828 5828 5827 5826 5825 5822 5819
5778 5775 5772 5770 5768 5767 5766 5766 5764 5762 5762 5762 5763 5766 5771 5774 5775 5774 5776 5778 5776 5776 5778 5781 5783 5786 5789 5792 5796 5800 5807 5810 5813 5815 5817 5818 5819 5819 5819 5818 5818 5816 5813
5765 5761 5759 5756 5754 5753 5751 5752 5751 5750 5749 5750 5750 5752 5756 5761 5763 5764 5764 5767 5766 5767 5770 5772 5776 5778 5779 5781 5786 5792 5796 5800 5804 5806 5808 5810 5810 5810 5811 5812 5811 5809 5807
5752 5749 5746 5743 5741 5740 5739 5739 5740 5738 5736 5737 5738 5738 5742 5746 5750 5752 5754 5755 5757 5759 5762 5764 5768 5771 5773 5776 5779 5783 5787 5790 5793 5796 5798 5800 5801 5801 5802 5803 5803 5802 5799
5740 5737 5734 5731 5729 5727 5726 5726 5726 5727 5726 5724 5725 5726 5729 5730 5735 5739 5743 5743 5747 5750 5753 5754 5758 5762 5765 5767 5771 5774 5778 5781 5783 5786 5790 5792 5792 5792 5792 5793 5793 5792 5792
5728 5725 5721 5718 5715 5713 5711 5711 5711 5712 5713 5712 5713 5715 5716 5717 5720 5725 5729 5734 5736 5738 5742 5744 5748 5751 5756 5759 5762 5766 5770 5772 5774 5776 5778 5780 5779 5780 5782 5784 5783 5783 5781
5716 5712 5708 5704 5701 5699 5697 5696 5696 5697 5699 5699 5700 5702 5704 5706 5707 5712 5716 5721 5724 5728 5731 5736 5739 5742 5746 5747 5753 5757 5761 5764 5765 5767 5767 5767 5768 5769 5771 5773 5774 5773 5773
5703 5699 5695 5691 5687 5685 5683 5682 5682 5684 5685 5686 5686 5689 5692 5693 5695 5699 5704 5709 5714 5719 5722 5726 5730 5734 5737 5740 5744 5748 5751 5754 5756 5758 5758 5758 5759 5759 5761 5763 5764 5764 5763
5689 5685 5681 5677 5674 5671 5669 5668 5668 5669 5672 5673 5673 5676 5679 5682 5685 5687 5692 5697 5704 5708 5712 5716 5720 5725 5729 5731 5734 5739 5742 5744 5746 5748 5750 5750 5750 5751 5753 5754 5755 5754 5753
5675 5672 5667 5664 5661 5659 5657 5656 5656 5656 5658 5660 5661 5663 5667 5670 5674 5678 5681 5686 5691 5696 5701 5705 5711 5716 5720 5723 5726 5730 5733 5736 5739 5740 5741 5740 5741 5743 5744 5745 5745 5744 5743
5662 5658 5656 5654 5650 5647 5646 5645 5645 5645 5646 5648 5651 5653 5657 5661 5664 5669 5672 5675 5680 5686 5690 5696 5701 5707 5711 5715 5717 5721 5724 5727 5730 5731 5731 5732 5732 5734 5735 5736 5734 5733 5732
5650 5647 5645 5643 5640 5637 5635 5635 5635 5635 5637 5638 5641 5644 5648 5651 5655 5659 5663 5667 5672 5676 5681 5686 5693 5698 5701 5705 5707 5711 5714 5718 5720 5723 5724 5725 5725 5726 5726 5726 5724 5724 5723
5640 5637 5635 5633 5630 5627 5626 5625 5626 5627 5628 5630 5632 5635 5639 5643 5646 5650 5655 5660 5665 5669 5673 5678 5682 5687 5691 5695 5699 5702 5706 5709 5711 5713 5716 5717 5718 5718 5717 5715 5714 5713 5713